Regional Weather Roundup
Issued by NWS

Home | Current Version | Previous Version | Text Only | Print | Product List | Glossary On
Versions: 1 2 3 4 5 6 7 8 9 10 11 12 13 14 15 16 17 18 19 20 21 22 23 24 25 26 27 28 29 30 31 32 33 34 35 36 37 38 39 40 41 42 43 44 45 46 47 48 49 50
000
ASHW40 PHFO 140843
RWRHI

WEATHER ROUNDUP FOR HAWAII
NATIONAL WEATHER SERVICE HONOLULU HI
1000 PM HST SAT FEB 13 2016

THIS IS AN AUTOMATED REPORT THAT HAS NOT BEEN QUALITY CONTROLLED.

NOTE..."FAIR" INDICATES FEW OR NO CLOUDS BELOW 12,000 FEET WITH NO
SIGNIFICANT WEATHER AND/OR OBSTRUCTIONS TO VISIBILITY.

* - THESE SITES REPORT LIMITED FIELDS

HIZ001>004-140900-
KAUAI-NIIHAU-

CITY           SKY/WX    TMP DP  RH WIND       PRES   REMARKS
LIHUE APT      CLOUDY    76  69  79 E10       30.10S
PORT ALLEN*      N/A     70 N/A N/A NE5         N/A
POIPU*           N/A     68 N/A N/A N3          N/A
PRINCEVILLE*     N/A     68 N/A N/A S3          N/A
KOKOLE POINT*  NOT AVBL
MOLOAA DAIRY*    N/A     73  70  88 E6G12       N/A
WAIMEA HTS*      N/A     72  64  78 N2          N/A
PUU OPAE*        N/A     64  59  82 NE1         N/A
PUU LUA*       NOT AVBL
MAKAHA RIDGE*    N/A     64  61  88 E1          N/A
$$

HIZ005>011-140900-
OAHU-

CITY           SKY/WX    TMP DP  RH WIND       PRES   REMARKS
HONOLULU       PTCLDY    76  64  66 NE3       30.08R
KALAELOA       CLEAR     70  62  76 CALM      30.09S
KANEOHE MCB    CLOUDY    76  66  71 E10       30.07S
WHEELER FIELD  FAIR      71  63  75 E1        30.09S
BELLOWS*         N/A    N/A N/A N/A NE20        N/A
KAHUKU*          N/A    N/A N/A N/A VRB10G17    N/A
WHEELER*         N/A    N/A N/A N/A NW1         N/A
WAIANAE HARBOR   N/A    N/A N/A N/A E6G12       N/A
DILLINGHAM*      N/A     68  63  83 MISG        N/A
KAHUKU TRN*      N/A     82  75  78 E8G24       N/A
KAWAILOA*        N/A     70  63  78 E5G13       N/A
KII*             N/A     75  68  78 E16G22      N/A
MAKUA RANGE*     N/A     68  63  83 SE6         N/A
OAHU FOREST NW NOT AVBL
SCHOFIELD BRK*   N/A    N/A N/A N/A MISG        N/A
SCHOFIELD S*   NOT AVBL
WAIANAE VLY*   NOT AVBL
KUAOKALA*      NOT AVBL
HONOULIUULI*   NOT AVBL
MOKUOLOE IS*   NOT AVBL
PALEHUA*       NOT AVBL
WAIAWA PHB*    NOT AVBL
$$

HIZ012>013-140900-
MOLOKAI-

CITY           SKY/WX    TMP DP  RH WIND       PRES   REMARKS
MOLOKAI AIRPT  CLEAR     72  64  76 N8        30.08S
KALAUPAPA      NOT AVBL
MAKAPULAPAI*     N/A     75  66  73 E18G31      N/A
MOLOKAI 1*     NOT AVBL
PUU ALII*        N/A     57  57 100 E3G14       N/A
$$

HIZ016-140900-
KAHOOLAWE-

CITY           SKY/WX    TMP DP  RH WIND       PRES   REMARKS
KAHOOLAWE*       N/A     68 N/A N/A E1          N/A
HAKIOAWA*        N/A     72  60  65 MISG      30.49R
HONOKANAIA*      N/A     75  62  64 NE15G33     N/A
KANELOA*         N/A     73  64  73 E20G35    30.12R
KEALIALALO*    NOT AVBL
LUA MAKIKA*    NOT AVBL
$$

HIZ014>015-140900-
LANAI-

CITY           SKY/WX    TMP DP  RH WIND       PRES   REMARKS
LANAI CITY     CLOUDY    70  64  83 N8        30.12S
LANAI 1*       NOT AVBL
$$

HIZ017>028-140900-
MAUI-

CITY           SKY/WX    TMP DP  RH WIND       PRES   REMARKS
KAHULUI        PTCLDY    72  66  81 CALM      30.07R
KAPALUA-W MAUI NOT AVBL
HANA AIRPORT   NOT AVBL
HANA*            N/A     73 N/A N/A SE7G14      N/A
HALEAKALA SUMM   N/A     48 -13   7 SE5         N/A
MAALAEA BAY*     N/A     72 N/A N/A N7          N/A
HALEAKALA*     NOT AVBL
KAUPO GAP*       N/A    N/A N/A N/A NW3G10      N/A
KULA 1*          N/A    N/A N/A N/A E3          N/A
$$

HIZ023>026-140900-
BIG ISLAND OF HAWAII COAST AND LOWER SLOPES-

CITY           SKY/WX    TMP DP  RH WIND       PRES   REMARKS
KAILUA KONA    CLOUDY    77  68  73 CALM      30.06R
HILO           PTCLDY    71  65  81 VRB5      30.12R
HONOKAA*         N/A     66 N/A N/A VRB1        N/A
KAWAIHAE MWT*    N/A     77 N/A N/A S1          N/A
KAWAIHAE*      NOT AVBL
SOUTH POINT*     N/A     70 N/A N/A N16G26      N/A
UPOLU AIRPORT*   N/A    N/A N/A N/A E13G24      N/A
KAMUELA*       NOT AVBL
HAKALAU*         N/A    N/A N/A N/A SW7         N/A
KALOKO-HONOKO*   N/A     73  64  73 CALM      30.05R
PALI 2*          N/A     61  55  82 N10G20      N/A
KEALAKOMO*       N/A     73  64  73 NE12G22     N/A
KAUPULEHU*     NOT AVBL
KAPAPALA*        N/A     61  53  75 N8          N/A
LOWER KAHUKU*    N/A     61 -40   1 VRB3G14     N/A
PUHE CS*         N/A     75  64  69 CALM        N/A
PUHO CS*         N/A     75  64  69 N2          N/A
PTA KEAMUKU*     N/A     61  59  94 CALM        N/A
WAIKOLOA*        N/A     72  63  73 W6          N/A
$$

HIZ027>028-140900-
BIG ISLAND OF HAWAII INTERIOR AND SUMMMITS-

CITY           SKY/WX    TMP DP  RH WIND       PRES   REMARKS
BRADSHAW FIELD CLOUDY    60  10  14 SE8G18    30.35S
MK VISITOR CEN   N/A     52 -11   7 SE8         N/A
MAUNA KEA*       N/A     39 -18   8 S12         N/A
MAUNA LOA*       N/A     50 -36   2 MISG        N/A
MAUNA LOA 1*   NOT AVBL
PTA KIPUKA*      N/A     48  48 100 SE2         N/A
PTA RANGE 17*    N/A     59  12  15 E12G25      N/A
PTA WEST*        N/A     55  54  94 E2          N/A
NENE CABIN*      N/A    N/A N/A N/A NE9G15      N/A
AHUMOA*        NOT AVBL
PTA PORTABLE*  NOT AVBL
PUU MALI*        N/A    N/A N/A N/A E6          N/A
$$

HIC003-140900-
NORTHWEST ISLANDS-

CITY           SKY/WX    TMP DP  RH WIND       PRES   REMARKS
MIDWAY ISLAND  PTCLDY    57  43  58 NW13      30.21R
MIDWAY NOS*    NOT AVBL
FRENCH FRIGATE NOT AVBL
$$

PHZ110>124-180-140900-
BUOY REPORTS

STATION/POSITION TIME  TEMP    WIND        PRES    WAVE   SWELL
                       AIR SEA DIR/SP/G            HT/PER HT/DIR
                 (UTC) (F)     (DEG/KT/KT) (MB)    (FT/S) (FT/D)
BUOY 51001       0800   76 75  170/ 10/ 12 1018.5R
BUOY 51101       0750   76 76  170/ 10/ 10 1018.4R   6/17   5/280
BUOY 51100       NOT AVBL
BUOY 51002       0750   77 78   90/ 21/ 27 1016.0   10/ 8   5/110
BUOY 51003       0750   77 78   90/ 16/ 19 1017.5R   6/ 8   5/100
BUOY 51004       0750   76 77   70/ 23/ 29 1016.8R  11/ 8   5/350
BARBERS PT BUOY  NOT AVBL
WAIMEA BAY BUOY  0804      77                N/A     4/12   2/340
KAILUA BAY BUOY  0811      77                N/A     6/ 7   2/ 20
LANAI BUOY       NOT AVBL
BARBERS PT 2     0803      78                N/A     4/ 7   2/200
PAUWELA MAUI     0807      76                N/A     7/ 7   2/350
HILO             0812      77                N/A     7/11   3/ 70
KANEOHE BAY BUOY 0806      76                N/A     5/ 7   2/350
HANALEI KAUAI    0801      77                N/A     4/11   2/310
KAHULUI HARBOR   NOT AVBL
HONOLULU HARBOR  0800   76 77   60/  4/  7 1018.9R
KILO NALU        NOT AVBL
HILO HARBOR      0800   72 76  230/  5/  8 1019.5R
MOKUOLOE         0700      77   70/  5/  8 1019.0R
NAWILIWILI       0800   71 78  250/  4/  5 1019.0S
WHOTS BUOY       NOT AVBL
BUOY 51028       NOT AVBL
$$

......................KEY........................................
  SKY/WX - SKY CONDITIONS/PRESENT WEATHER
  TMP    - TEMPERATURE IN FAHRENHEIT
  DWPT   - DEWPOINT IN FAHRENHEIT
  RH     - RELATIVE HUMIDITY IN PERCENT
  WIND   - DIRECTION AND SPEED /MPH FOR ISLANDS...KTS FOR BUOYS/
  PRES   - MEAN SEA LEVEL PRESSURE IN INCHES OF HG
  VSB    - VISIBILITY IN MILES
  HX     - HEAT INDEX
  WCI    - WIND CHILL INDEX
  VRB    - VARIABLE WIND DIRECTION
  N/A    - NOT AVAILABLE



USA.gov is the U.S. government's official web portal to all federal, state and local government web resources and services.